Regional Weather Roundup
Issued by NWS Albany, NY

Current Version | Previous Version | Text Only | Print | Product List | Glossary On
Versions: 1 2 3 4 5 6 7 8 9 10 11 12 13 14 15 16 17 18 19 20 21 22 23 24 25 26 27 28
000
ASUS41 KALY 060710
RWRALY

NEW YORK STATE HOURLY WEATHER ROUNDUP
NATIONAL WEATHER SERVICE ALBANY NY
300 AM EDT THU MAY 06 2021

NOTE: "FAIR" INDICATES FEW OR NO CLOUDS BELOW 12,000 FEET WITH NO
SIGNIFICANT WEATHER AND/OR NO OBSTRUCTIONS TO VISIBILITY.

NYZ032-033-038>043-046>054-057>066-NYZ062>081-082-084-060800-
EAST


CITY           SKY/WX    TMP DP  RH WIND       PRES   REMARKS
ALBANY         MOCLDY    45  42  89 W13       29.84R
GLENS FALLS    PTCLDY    42  41  96 N5        29.82R
POUGHKEEPSIE   CLEAR     42  40  92 CALM      29.83S FOG
NEWBURGH       PTCLDY    46  41  81 W12       29.84S
MONTGOMERY     CLEAR     47  38  71 VRB3      29.84S
WHITE PLAINS   CLEAR     49  39  68 NW15G22   29.82S
ISLIP          CLEAR     50  42  74 NW12      29.81S
NEW YORK CITY  CLEAR     53  40  61 NW16      29.84F
CENTRAL PARK   CLEAR     51  40  65 VRB6      29.88S
$$

NYZ005>009-017-018-044>046-055-056-060800-
CENTRAL


CITY           SKY/WX    TMP DP  RH WIND       PRES   REMARKS
FULTON         MOCLDY    44  39  82 NW7       29.96R
SYRACUSE       CLOUDY    45  41  86 W10       29.95S
ROME           MOCLDY    44  41  89 W7        29.92R
ELMIRA         CLOUDY    46  41  82 VRB6      29.96S
BINGHAMTON     CLOUDY    42  38  85 NW13      29.90F
MONTICELLO     CLOUDY    44  41  89 NW10G18   29.86S
$$

NYZ026>034-041>043-087-060800-
NORTH


CITY           SKY/WX    TMP DP  RH WIND       PRES   REMARKS
WATERTOWN      CLEAR     40  36  86 NW6       29.94R
FORT DRUM      NOT AVBL
OGDENSBURG     CLOUDY    46  37  71 NW9G16    29.89S
MASSENA        CLOUDY    46  34  62 W9        29.89R
SARANAC LAKE   CLOUDY    39  38  96 VRB7      29.82R WCI  34
PLATTSBURGH    CLOUDY    47  39  74 NW12      29.80S
$$

NYZ001>004-010>016-019>021-085-060800-
WEST


CITY           SKY/WX    TMP DP  RH WIND       PRES   REMARKS
NIAGARA FALLS  CLEAR     39  35  86 NW7       30.04S WCI  34
BUFFALO        PTCLDY    41  36  82 W8        30.04S
DUNKIRK        CLEAR     44  38  79 W6        30.06F
JAMESTOWN      MOCLDY    38  35  89 VRB7      30.05S WCI  33
WELLSVILLE     CLOUDY    38  37  97 NW13      29.99S WCI  30
ROCHESTER      PTCLDY    44  37  76 NW9       30.01S
PENN YAN       CLOUDY    45  37  73 NW9G18    29.98S
$$

             KEY
       WCI = WIND CHILL INDEX
       VSB = VISIBILITY
       HX  = HEAT INDEX
$$



USA.gov is the U.S. government's official web portal to all federal, state and local government web resources and services.